#Datum;Uhrzeit;WR;Pac;DaySum;Status;WR;Pac;DaySum;Status;Pdc1;Udc;Temp;WR;Pac;DaySum;Status;Pdc1;Udc;Temp;WR;Pac;DaySum;Status;Pdc1;Udc;Temp;WR;Pac;DaySum;Status;Pdc1;Pdc2;Udc1;Udc2;Temp;WR;Pac;DaySum;Status;Pdc1;Pdc2;Udc1;Udc2;Temp;WR;Pac;DaySum;Status;Pdc1;Udc;Temp;WR;Pac;DaySum;Status;Pdc1;Udc;Temp;WR;Pac;DaySum;Status;Pdc1;Udc;Temp
21.01.19;23:55:00;1;336;17520;0;2;0;16412;0;0;0;0;3;0;10881;0;0;0;0;4;0;12397;0;0;0;0;5;0;41019;0;0;0;0;0;0;6;0;31430;0;0;0;0;0;0;7;0;29039;0;0;0;0;8;0;28328;0;0;0;0;9;0;15257;0;0;0;0
21.01.19;23:50:00;1;742;17477;0;2;0;16412;0;0;0;0;3;0;10881;0;0;0;0;4;0;12397;0;0;0;0;5;0;41019;0;0;0;0;0;0;6;0;31430;0;0;0;0;0;0;7;0;29039;0;0;0;0;8;0;28328;0;0;0;0;9;0;15257;0;0;0;0
21.01.19;23:45:00;1;354;17440;0;2;0;16412;0;0;0;0;3;0;10881;0;0;0;0;4;0;12397;0;0;0;0;5;0;41019;0;0;0;0;0;0;6;0;31430;0;0;0;0;0;0;7;0;29039;0;0;0;0;8;0;28328;0;0;0;0;9;0;15257;0;0;0;0
21.01.19;23:40:00;1;555;17393;0;2;0;16412;0;0;0;0;3;0;10881;0;0;0;0;4;0;12397;0;0;0;0;5;0;41019;0;0;0;0;0;0;6;0;31430;0;0;0;0;0;0;7;0;29039;0;0;0;0;8;0;28328;0;0;0;0;9;0;15257;0;0;0;0
21.01.19;23:35:00;1;537;17358;0;2;0;16412;0;0;0;0;3;0;10881;0;0;0;0;4;0;12397;0;0;0;0;5;0;41019;0;0;0;0;0;0;6;0;31430;0;0;0;0;0;0;7;0;29039;0;0;0;0;8;0;28328;0;0;0;0;9;0;15257;0;0;0;0
21.01.19;23:30:00;1;338;17305;0;2;0;16412;0;0;0;0;3;0;10881;0;0;0;0;4;0;12397;0;0;0;0;5;0;41019;0;0;0;0;0;0;6;0;31430;0;0;0;0;0;0;7;0;29039;0;0;0;0;8;0;28328;0;0;0;0;9;0;15257;0;0;0;0
21.01.19;23:25:00;1;517;17277;0;2;0;16412;0;0;0;0;3;0;10881;0;0;0;0;4;0;12397;0;0;0;0;5;0;41019;0;0;0;0;0;0;6;0;31430;0;0;0;0;0;0;7;0;29039;0;0;0;0;8;0;28328;0;0;0;0;9;0;15257;0;0;0;0
21.01.19;23:20:00;1;346;17225;0;2;0;16412;0;0;0;0;3;0;10881;0;0;0;0;4;0;12397;0;0;0;0;5;0;41019;0;0;0;0;0;0;6;0;31430;0;0;0;0;0;0;7;0;29039;0;0;0;0;8;0;28328;0;0;0;0;9;0;15257;0;0;0;0
21.01.19;23:15:00;1;558;17195;0;2;0;16412;0;0;0;0;3;0;10881;0;0;0;0;4;0;12397;0;0;0;0;5;0;41019;0;0;0;0;0;0;6;0;31430;0;0;0;0;0;0;7;0;29039;0;0;0;0;8;0;28328;0;0;0;0;9;0;15257;0;0;0;0
21.01.19;23:10:00;1;382;17140;0;2;0;16412;0;0;0;0;3;0;10881;0;0;0;0;4;0;12397;0;0;0;0;5;0;41019;0;0;0;0;0;0;6;0;31430;0;0;0;0;0;0;7;0;29039;0;0;0;0;8;0;28328;0;0;0;0;9;0;15257;0;0;0;0
21.01.19;23:05:00;1;565;17108;0;2;0;16412;0;0;0;0;3;0;10881;0;0;0;0;4;0;12397;0;0;0;0;5;0;41019;0;0;0;0;0;0;6;0;31430;0;0;0;0;0;0;7;0;29039;0;0;0;0;8;0;28328;0;0;0;0;9;0;15257;0;0;0;0
21.01.19;23:00:00;1;414;17053;0;2;0;16412;0;0;0;0;3;0;10881;0;0;0;0;4;0;12397;0;0;0;0;5;0;41019;0;0;0;0;0;0;6;0;31430;0;0;0;0;0;0;7;0;29039;0;0;0;0;8;0;28328;0;0;0;0;9;0;15257;0;0;0;0
21.01.19;22:55:00;1;775;17019;0;2;0;16412;0;0;0;0;3;0;10881;0;0;0;0;4;0;12397;0;0;0;0;5;0;41019;2;0;0;0;0;0;6;0;31430;2;0;0;0;0;0;7;0;29039;0;0;0;0;8;0;28328;0;0;0;0;9;0;15257;0;0;0;0
21.01.19;22:50:00;1;441;16960;0;2;0;16412;0;0;0;0;3;0;10881;0;0;0;0;4;0;12397;0;0;0;0;5;0;41019;2;0;0;0;0;0;6;0;31430;2;0;0;0;0;0;7;0;29039;0;0;0;0;8;0;28328;0;0;0;0;9;0;15257;0;0;0;0
21.01.19;22:45:00;1;894;16921;0;2;0;16412;0;0;0;0;3;0;10881;0;0;0;0;4;0;12397;0;0;0;0;5;0;41019;2;0;0;0;0;0;6;0;31430;2;0;0;0;0;0;7;0;29039;0;0;0;0;8;0;28328;0;0;0;0;9;0;15257;0;0;0;0
21.01.19;22:40:00;1;449;16854;0;2;0;16412;0;0;0;0;3;0;10881;0;0;0;0;4;0;12397;0;0;0;0;5;0;41019;2;0;0;0;0;0;6;0;31430;2;0;0;0;0;0;7;0;29039;0;0;0;0;8;0;28328;0;0;0;0;9;0;15257;0;0;0;0
21.01.19;22:35:00;1;792;16816;0;2;0;16412;0;0;0;0;3;0;10881;0;0;0;0;4;0;12397;0;0;0;0;5;0;41019;2;0;0;0;0;0;6;0;31430;2;0;0;0;0;0;7;0;29039;0;0;0;0;8;0;28328;0;0;0;0;9;0;15257;0;0;0;0
21.01.19;22:30:00;1;458;16756;0;2;0;16412;0;0;0;0;3;0;10881;0;0;0;0;4;0;12397;0;0;0;0;5;0;41019;2;0;0;0;0;0;6;0;31430;2;0;0;0;0;0;7;0;29039;0;0;0;0;8;0;28328;0;0;0;0;9;0;15257;0;0;0;0
21.01.19;22:25:00;1;841;16716;0;2;0;16412;0;0;0;0;3;0;10881;0;0;0;0;4;0;12397;0;0;0;0;5;0;41019;2;0;0;0;0;0;6;0;31430;2;0;0;0;0;0;7;0;29039;0;0;0;0;8;0;28328;0;0;0;0;9;0;15257;0;0;0;0
21.01.19;22:20:00;1;403;16656;0;2;0;16412;0;0;0;0;3;0;10881;0;0;0;0;4;0;12397;0;0;0;0;5;0;41019;2;0;0;0;0;0;6;0;31430;2;0;0;0;0;0;7;0;29039;0;0;0;0;8;0;28328;0;0;0;0;9;0;15257;0;0;0;0
21.01.19;22:15:00;1;595;16622;0;2;0;16412;0;0;0;0;3;0;10881;0;0;0;0;4;0;12397;0;0;0;0;5;0;41019;2;0;0;0;0;0;6;0;31430;2;0;0;0;0;0;7;0;29039;0;0;0;0;8;0;28328;0;0;0;0;9;0;15257;0;0;0;0
21.01.19;22:10:00;1;432;16564;0;2;0;16412;0;0;0;0;3;0;10881;0;0;0;0;4;0;12397;0;0;0;0;5;0;41019;2;0;0;0;0;0;6;0;31430;2;0;0;0;0;0;7;0;29039;0;0;0;0;8;0;28328;0;0;0;0;9;0;15257;0;0;0;0
21.01.19;22:05:00;1;584;16528;0;2;0;16412;0;0;0;0;3;0;10881;0;0;0;0;4;0;12397;0;0;0;0;5;0;41019;2;0;0;0;0;0;6;0;31430;2;0;0;0;0;0;7;0;29039;0;0;0;0;8;0;28328;0;0;0;0;9;0;15257;0;0;0;0
21.01.19;22:00:00;1;374;16472;0;2;0;16412;0;0;0;0;3;0;10881;0;0;0;0;4;0;12397;0;0;0;0;5;0;41019;2;0;0;0;0;0;6;0;31430;2;0;0;0;0;0;7;0;29039;0;0;0;0;8;0;28328;0;0;0;0;9;0;15257;0;0;0;0
21.01.19;21:55:00;1;575;16433;0;2;0;16412;0;0;0;0;3;0;10881;0;0;0;0;4;0;12397;0;0;0;0;5;0;41019;2;0;0;0;0;0;6;0;31430;2;0;0;0;0;0;7;0;29039;0;0;0;0;8;0;28328;0;0;0;0;9;0;15257;0;0;0;0
21.01.19;21:50:00;1;578;16387;0;2;0;16412;0;0;0;0;3;0;10881;0;0;0;0;4;0;12397;0;0;0;0;5;0;41019;2;0;0;0;0;0;6;0;31430;2;0;0;0;0;0;7;0;29039;0;0;0;0;8;0;28328;0;0;0;0;9;0;15257;0;0;0;0
21.01.19;21:45:00;1;460;16332;0;2;0;16412;0;0;0;0;3;0;10881;0;0;0;0;4;0;12397;0;0;0;0;5;0;41019;2;0;0;0;0;0;6;0;31430;2;0;0;0;0;0;7;0;29039;0;0;0;0;8;0;28328;0;0;0;0;9;0;15257;0;0;0;0
21.01.19;21:40:00;1;741;16293;0;2;0;16412;0;0;0;0;3;0;10881;0;0;0;0;4;0;12397;0;0;0;0;5;0;41019;2;0;0;0;0;0;6;0;31430;2;0;0;0;0;0;7;0;29039;0;0;0;0;8;0;28328;0;0;0;0;9;0;15257;0;0;0;0
21.01.19;21:35:00;1;611;16228;0;2;0;16412;0;0;0;0;3;0;10881;0;0;0;0;4;0;12397;0;0;0;0;5;0;41019;2;0;0;0;0;0;6;0;31430;2;0;0;0;0;0;7;0;29039;0;0;0;0;8;0;28328;0;0;0;0;9;0;15257;0;0;0;0
21.01.19;21:30:00;1;818;16177;0;2;0;16412;0;0;0;0;3;0;10881;0;0;0;0;4;0;12397;0;0;0;0;5;0;41019;2;0;0;0;0;0;6;0;31430;2;0;0;0;0;0;7;0;29039;0;0;0;0;8;0;28328;0;0;0;0;9;0;15257;0;0;0;0
21.01.19;21:25:00;1;619;16102;0;2;0;16412;0;0;0;0;3;0;10881;0;0;0;0;4;0;12397;0;0;0;0;5;0;41019;2;0;0;0;0;0;6;0;31430;2;0;0;0;0;0;7;0;29039;0;0;0;0;8;0;28328;0;0;0;0;9;0;15257;0;0;0;0
21.01.19;21:20:00;1;1055;16050;0;2;0;16412;0;0;0;0;3;0;10881;0;0;0;0;4;0;12397;0;0;0;0;5;0;41019;2;0;0;0;0;0;6;0;31430;2;0;0;0;0;0;7;0;29039;0;0;0;0;8;0;28328;0;0;0;0;9;0;15257;0;0;0;0
21.01.19;21:15:00;1;673;15972;0;2;0;16412;0;0;0;0;3;0;10881;0;0;0;0;4;0;12397;0;0;0;0;5;0;41019;2;0;0;0;0;0;6;0;31430;2;0;0;0;0;0;7;0;29039;0;0;0;0;8;0;28328;0;0;0;0;9;0;15257;0;0;0;0
21.01.19;21:10:00;1;1069;15916;0;2;0;16412;0;0;0;0;3;0;10881;0;0;0;0;4;0;12397;0;0;0;0;5;0;41019;2;0;0;0;0;0;6;0;31430;2;0;0;0;0;0;7;0;29039;0;0;0;0;8;0;28328;0;0;0;0;9;0;15257;0;0;0;0
21.01.19;21:05:00;1;618;15838;0;2;0;16412;0;0;0;0;3;0;10881;0;0;0;0;4;0;12397;0;0;0;0;5;0;41019;2;0;0;0;0;0;6;0;31430;2;0;0;0;0;0;7;0;29039;0;0;0;0;8;0;28328;0;0;0;0;9;0;15257;0;0;0;0
21.01.19;21:00:00;1;849;15780;0;2;0;16412;0;0;0;0;3;0;10881;0;0;0;0;4;0;12397;0;0;0;0;5;0;41019;2;0;0;0;0;0;6;0;31430;2;0;0;0;0;0;7;0;29039;0;0;0;0;8;0;28328;0;0;0;0;9;0;15257;0;0;0;0
21.01.19;20:55:00;1;837;15708;0;2;0;16412;0;0;0;0;3;0;10881;0;0;0;0;4;0;12397;0;0;0;0;5;0;41019;2;0;0;0;0;0;6;0;31430;2;0;0;0;0;0;7;0;29039;0;0;0;0;8;0;28328;0;0;0;0;9;0;15257;0;0;0;0
21.01.19;20:50:00;1;813;15625;0;2;0;16412;0;0;0;0;3;0;10881;0;0;0;0;4;0;12397;0;0;0;0;5;0;41019;2;0;0;0;0;0;6;0;31430;2;0;0;0;0;0;7;0;29039;0;0;0;0;8;0;28328;0;0;0;0;9;0;15257;0;0;0;0
21.01.19;20:45:00;1;1197;15558;0;2;0;16412;0;0;0;0;3;0;10881;0;0;0;0;4;0;12397;0;0;0;0;5;0;41019;2;0;0;0;0;0;6;0;31430;2;0;0;0;0;0;7;0;29039;0;0;0;0;8;0;28328;0;0;0;0;9;0;15257;0;0;0;0
21.01.19;20:40:00;1;805;15465;0;2;0;16412;0;0;0;0;3;0;10881;0;0;0;0;4;0;12397;0;0;0;0;5;0;41019;2;0;0;0;0;0;6;0;31430;2;0;0;0;0;0;7;0;29039;0;0;0;0;8;0;28328;0;0;0;0;9;0;15257;0;0;0;0
21.01.19;20:35:00;1;1222;15397;0;2;0;16412;0;0;0;0;3;0;10881;0;0;0;0;4;0;12397;0;0;0;0;5;0;41019;2;0;0;0;0;0;6;0;31430;2;0;0;0;0;0;7;0;29039;0;0;0;0;8;0;28328;0;0;0;0;9;0;15257;0;0;0;0
21.01.19;20:30:00;1;839;15304;0;2;0;16412;0;0;0;0;3;0;10881;0;0;0;0;4;0;12397;0;0;0;0;5;0;41019;2;0;0;0;0;0;6;0;31430;2;0;0;0;0;0;7;0;29039;0;0;0;0;8;0;28328;0;0;0;0;9;0;15257;0;0;0;0
21.01.19;20:25:00;1;1290;15233;0;2;0;16412;0;0;0;0;3;0;10881;0;0;0;0;4;0;12397;0;0;0;0;5;0;41019;2;0;0;0;0;0;6;0;31430;2;0;0;0;0;0;7;0;29039;0;0;0;0;8;0;28328;0;0;0;0;9;0;15257;0;0;0;0
21.01.19;20:20:00;1;819;15137;0;2;0;16412;0;0;0;0;3;0;10881;0;0;0;0;4;0;12397;0;0;0;0;5;0;41019;2;0;0;0;0;0;6;0;31430;2;0;0;0;0;0;7;0;29039;0;0;0;0;8;0;28328;0;0;0;0;9;0;15257;0;0;0;0
21.01.19;20:15:00;1;961;15068;0;2;0;16412;0;0;0;0;3;0;10881;0;0;0;0;4;0;12397;0;0;0;0;5;0;41019;2;0;0;0;0;0;6;0;31430;2;0;0;0;0;0;7;0;29039;0;0;0;0;8;0;28328;0;0;0;0;9;0;15257;0;0;0;0
21.01.19;20:10:00;1;1037;14977;0;2;0;16412;0;0;0;0;3;0;10881;0;0;0;0;4;0;12397;0;0;0;0;5;0;41019;2;0;0;0;0;0;6;0;31430;2;0;0;0;0;0;7;0;29039;0;0;0;0;8;0;28328;0;0;0;0;9;0;15257;0;0;0;0
21.01.19;20:05:00;1;884;14883;0;2;0;16412;0;0;0;0;3;0;10881;0;0;0;0;4;0;12397;0;0;0;0;5;0;41019;2;0;0;0;0;0;6;0;31430;2;0;0;0;0;0;7;0;29039;0;0;0;0;8;0;28328;0;0;0;0;9;0;15257;0;0;0;0
21.01.19;20:00:00;1;932;14810;0;2;0;16412;0;0;0;0;3;0;10881;0;0;0;0;4;0;12397;0;0;0;0;5;0;41019;2;0;0;0;0;0;6;0;31430;2;0;0;0;0;0;7;0;29039;0;0;0;0;8;0;28328;0;0;0;0;9;0;15257;0;0;0;0
21.01.19;19:55:00;1;1323;14727;0;2;0;16412;0;0;0;0;3;0;10881;0;0;0;0;4;0;12397;0;0;0;0;5;0;41019;2;0;0;0;0;0;6;0;31430;2;0;0;0;0;0;7;0;29039;0;0;0;0;8;0;28328;0;0;0;0;9;0;15257;0;0;0;0
21.01.19;19:50:00;1;844;14625;0;2;0;16412;0;0;0;0;3;0;10881;0;0;0;0;4;0;12397;0;0;0;0;5;0;41019;2;0;0;0;0;0;6;0;31430;2;0;0;0;0;0;7;0;29039;0;0;0;0;8;0;28328;0;0;0;0;9;0;15257;0;0;0;0
21.01.19;19:45:00;1;987;14554;0;2;0;16412;0;0;0;0;3;0;10881;0;0;0;0;4;0;12397;0;0;0;0;5;0;41019;2;0;0;0;0;0;6;0;31430;2;0;0;0;0;0;7;0;29039;0;0;0;0;8;0;28328;0;0;0;0;9;0;15257;0;0;0;0
21.01.19;19:40:00;1;1243;14472;0;2;0;16412;0;0;0;0;3;0;10881;0;0;0;0;4;0;12397;0;0;0;0;5;0;41019;2;0;0;0;0;0;6;0;31430;2;0;0;0;0;0;7;0;29039;0;0;0;0;8;0;28328;0;0;0;0;9;0;15257;0;0;0;0
21.01.19;19:35:00;1;835;14379;0;2;0;16412;0;0;0;0;3;0;10881;0;0;0;0;4;0;12397;0;0;0;0;5;0;41019;2;0;0;0;0;0;6;0;31430;2;0;0;0;0;0;7;0;29039;0;0;0;0;8;0;28328;0;0;0;0;9;0;15257;0;0;0;0
21.01.19;19:30:00;1;875;14309;0;2;0;16412;0;0;0;0;3;0;10881;0;0;0;0;4;0;12397;0;0;0;0;5;0;41019;2;0;0;0;0;0;6;0;31430;2;0;0;0;0;0;7;0;29039;0;0;0;0;8;0;28328;0;0;0;0;9;0;15257;0;0;0;0
21.01.19;19:25:00;1;1050;14236;0;2;0;16412;0;0;0;0;3;0;10881;0;0;0;0;4;0;12397;0;0;0;0;5;0;41019;2;0;0;0;0;0;6;0;31430;2;0;0;0;0;0;7;0;29039;0;0;0;0;8;0;28328;0;0;0;0;9;0;15257;0;0;0;0
21.01.19;19:20:00;1;864;14139;0;2;0;16412;0;0;0;0;3;0;10881;0;0;0;0;4;0;12397;0;0;0;0;5;0;41019;2;0;0;0;0;0;6;0;31430;2;0;0;0;0;0;7;0;29039;0;0;0;0;8;0;28328;0;0;0;0;9;0;15257;0;0;0;0
21.01.19;19:15:00;1;829;14067;0;2;0;16412;0;0;0;0;3;0;10881;0;0;0;0;4;0;12397;0;0;0;0;5;0;41019;2;0;0;0;0;0;6;0;31430;2;0;0;0;0;0;7;0;29039;0;0;0;0;8;0;28328;0;0;0;0;9;0;15257;0;0;0;0
21.01.19;19:10:00;1;1340;13998;0;2;0;16412;0;0;0;0;3;0;10881;0;0;0;0;4;0;12397;0;0;0;0;5;0;41019;2;0;0;0;0;0;6;0;31430;2;0;0;0;0;0;7;0;29039;0;0;0;0;8;0;28328;0;0;0;0;9;0;15257;0;0;0;0
21.01.19;19:05:00;1;878;13898;0;2;0;16412;0;0;0;0;3;0;10881;0;0;0;0;4;0;12397;0;0;0;0;5;0;41019;2;0;0;0;0;0;6;0;31430;2;0;0;0;0;0;7;0;29039;0;0;0;0;8;0;28328;0;0;0;0;9;0;15257;0;0;0;0
21.01.19;19:00:00;1;885;13825;0;2;0;16412;0;0;0;0;3;0;10881;0;0;0;0;4;0;12397;0;0;0;0;5;0;41019;2;0;0;0;0;0;6;0;31430;2;0;0;0;0;0;7;0;29039;0;0;0;0;8;0;28328;0;0;0;0;9;0;15257;0;0;0;0
21.01.19;18:55:00;1;1244;13751;0;2;0;16412;0;0;0;0;3;0;10881;0;0;0;0;4;0;12397;0;0;0;0;5;0;41019;2;0;0;0;0;0;6;0;31430;2;0;0;0;0;0;7;0;29039;0;0;0;0;8;0;28328;0;0;0;0;9;0;15257;0;0;0;0
21.01.19;18:50:00;1;886;13653;0;2;0;16412;0;0;0;0;3;0;10881;0;0;0;0;4;0;12397;0;0;0;0;5;0;41019;2;0;0;0;0;0;6;0;31430;2;0;0;0;0;0;7;0;29039;0;0;0;0;8;0;28328;0;0;0;0;9;0;15257;0;0;0;0
21.01.19;18:45:00;1;888;13579;0;2;0;16412;0;0;0;0;3;0;10881;0;0;0;0;4;0;12397;0;0;0;0;5;0;41019;2;0;0;0;0;0;6;0;31430;2;0;0;0;0;0;7;0;29039;0;0;0;0;8;0;28328;0;0;0;0;9;0;15257;0;0;0;0
21.01.19;18:40:00;1;1300;13505;0;2;0;16412;0;0;0;0;3;0;10881;0;0;0;0;4;0;12397;0;0;0;0;5;0;41019;2;0;0;0;0;0;6;0;31430;2;0;0;0;0;0;7;0;29039;0;0;0;0;8;0;28328;0;0;0;0;9;0;15257;0;0;0;0
21.01.19;18:35:00;1;925;13407;0;2;0;16412;0;0;0;0;3;0;10881;0;0;0;0;4;0;12397;0;0;0;0;5;0;41019;2;0;0;0;0;0;6;0;31430;2;0;0;0;0;0;7;0;29039;0;0;0;0;8;0;28328;0;0;0;0;9;0;15257;0;0;0;0
21.01.19;18:30:00;1;927;13329;0;2;0;16412;0;0;0;0;3;0;10881;0;0;0;0;4;0;12397;0;0;0;0;5;0;41019;2;0;0;0;0;0;6;0;31430;2;0;0;0;0;0;7;0;29039;0;0;0;0;8;0;28328;0;0;0;0;9;0;15257;0;0;0;0
21.01.19;18:25:00;1;848;13254;0;2;0;16412;0;0;0;0;3;0;10881;0;0;0;0;4;0;12397;0;0;0;0;5;0;41019;2;0;0;0;0;0;6;0;31430;2;0;0;0;0;0;7;0;29039;0;0;0;0;8;0;28328;0;0;0;0;9;0;15257;0;0;0;0
21.01.19;18:20:00;1;1025;13164;0;2;0;16412;0;0;0;0;3;0;10881;0;0;0;0;4;0;12397;0;0;0;0;5;0;41019;2;0;0;0;0;0;6;0;31430;2;0;0;0;0;0;7;0;29039;0;0;0;0;8;0;28328;0;0;0;0;9;0;15257;0;0;0;0
21.01.19;18:15:00;1;831;13091;0;2;0;16412;0;0;0;0;3;0;10881;0;0;0;0;4;0;12397;0;0;0;0;5;0;41019;2;0;0;0;0;0;6;0;31430;2;0;0;0;0;0;7;0;29039;0;0;0;0;8;0;28328;0;0;0;0;9;0;15257;0;0;0;0
21.01.19;18:10:00;1;829;13021;0;2;0;16412;0;0;0;0;3;0;10881;0;0;0;0;4;0;12397;0;0;0;0;5;0;41019;2;0;0;0;0;0;6;0;31430;2;0;0;0;0;0;7;0;29039;0;0;0;0;8;0;28328;0;0;0;0;9;0;15257;0;0;0;0
21.01.19;18:05:00;1;1319;12950;0;2;0;16412;0;0;0;0;3;0;10881;0;0;0;0;4;0;12397;0;0;0;0;5;0;41019;2;0;0;0;0;0;6;0;31430;2;0;0;0;0;0;7;0;29039;0;0;0;0;8;0;28328;0;0;0;0;9;0;15257;0;0;0;0
21.01.19;18:00:00;1;1205;12846;0;2;0;16412;0;0;0;0;3;0;10881;0;0;0;0;4;0;12397;0;0;0;0;5;0;41019;2;0;0;0;0;0;6;0;31430;2;0;0;0;0;0;7;0;29039;0;0;0;0;8;0;28328;0;0;0;0;9;0;15257;0;0;0;0
21.01.19;17:55:00;1;1183;12740;0;2;0;16412;0;0;0;0;3;0;10881;0;0;0;0;4;0;12397;0;0;0;0;5;0;41019;2;0;0;0;0;0;6;0;31430;2;0;0;0;0;0;7;0;29039;0;0;0;0;8;0;28328;0;0;0;0;9;0;15257;0;0;0;0
21.01.19;17:50:00;1;2143;12582;0;2;0;16412;0;0;0;0;3;0;10881;0;0;0;0;4;0;12397;0;0;0;0;5;0;41019;2;0;0;0;0;0;6;0;31430;2;0;0;0;0;0;7;0;29039;0;0;0;0;8;0;28328;0;0;0;0;9;0;15257;0;0;0;0
21.01.19;17:45:00;1;2190;12380;0;2;0;16412;0;0;0;0;3;0;10881;0;0;0;0;4;0;12397;0;0;0;0;5;0;41019;2;0;0;0;0;0;6;0;31430;2;0;0;0;0;0;7;0;29039;0;0;0;0;8;0;28328;0;0;0;0;9;0;15257;0;0;0;0
21.01.19;17:40:00;1;1959;12182;0;2;0;16412;0;0;0;0;3;0;10881;0;0;0;0;4;0;12397;0;0;0;0;5;0;41019;2;0;0;0;0;0;6;0;31430;2;0;0;0;0;0;7;0;29039;0;0;0;0;8;0;28328;0;0;0;0;9;0;15257;0;0;0;0
21.01.19;17:35:00;1;3039;12022;0;2;0;16412;0;0;0;0;3;0;10881;0;0;0;0;4;0;12397;0;0;0;0;5;0;41019;2;0;0;0;0;0;6;0;31430;2;0;0;0;0;0;7;0;29039;0;0;0;0;8;0;28328;0;0;0;0;9;0;15257;0;0;0;0
21.01.19;17:30:00;1;4255;11741;0;2;0;16412;0;0;0;0;3;0;10881;0;0;0;0;4;0;12397;0;0;0;0;5;0;41019;2;0;0;0;0;0;6;0;31430;2;0;0;0;0;0;7;0;29039;0;0;0;0;8;0;28328;0;0;0;0;9;0;15257;0;0;0;0
21.01.19;17:25:00;1;3902;11332;0;2;0;16412;0;0;0;0;3;0;10881;0;0;0;0;4;0;12397;0;0;0;0;5;0;41019;2;0;0;0;0;0;6;0;31430;2;0;0;0;0;0;7;0;29039;0;0;0;0;8;0;28328;0;0;0;0;9;0;15257;0;0;0;0
21.01.19;17:20:00;1;1142;11039;0;2;0;16412;0;0;0;0;3;0;10881;0;0;0;0;4;0;12397;0;0;0;0;5;0;41019;2;0;0;0;0;0;6;0;31430;2;0;0;0;0;0;7;0;29039;0;0;0;0;8;0;28328;0;0;0;0;9;0;15257;0;0;0;0
21.01.19;17:15:00;1;547;10936;0;2;0;16412;0;0;231;10;3;0;10881;6;0;290;14;4;0;12397;0;0;0;0;5;0;41019;2;0;0;0;0;0;6;0;31430;2;0;0;0;0;0;7;0;29039;0;0;0;0;8;0;28328;0;0;0;0;9;0;15257;0;0;0;0
21.01.19;17:10:00;1;1019;10891;0;2;0;16412;6;0;313;12;3;0;10881;6;0;363;14;4;0;12397;0;0;21;2;5;0;41019;2;0;0;0;0;0;6;0;31430;2;0;0;0;0;0;7;0;29039;0;0;0;0;8;0;28328;0;0;0;0;9;0;15257;0;0;0;0
21.01.19;17:05:00;1;811;10822;0;2;0;16412;6;0;355;12;3;0;10881;6;3;410;15;4;0;12397;2;0;91;6;5;0;41019;1;0;1;234;247;13;6;0;31430;0;5;2;119;258;12;7;0;29039;0;0;0;0;8;0;28328;0;0;0;0;9;0;15257;0;0;41;1
21.01.19;17:00:00;1;1451;10751;0;2;0;16412;6;0;383;13;3;0;10881;6;2;457;15;4;0;12397;1;0;132;6;5;0;41019;23;0;0;406;488;20;6;0;31430;23;7;3;181;530;18;7;0;29039;6;0;282;14;8;0;28328;11;0;279;13;9;0;15257;6;0;292;9
21.01.19;16:55:00;1;2861;10612;0;2;0;16412;6;0;403;13;3;0;10881;6;2;490;15;4;0;12397;1;0;175;7;5;5;41019;1;0;0;420;634;21;6;0;31430;23;2;6;594;248;19;7;0;29039;6;0;361;14;8;0;28328;6;0;360;13;9;0;15257;6;0;375;9
21.01.19;16:50:00;1;2751;10370;0;2;0;16412;6;0;416;14;3;1;10881;4;3;502;16;4;0;12397;1;0;209;7;5;10;41019;1;1;3;427;675;21;6;0;31430;23;8;3;182;595;19;7;0;29039;6;0;402;15;8;0;28328;6;1;406;14;9;0;15257;6;0;433;9
21.01.19;16:45:00;1;2951;10116;0;2;3;16412;3;13;403;15;3;5;10881;3;10;493;16;4;0;12397;3;0;213;8;5;56;41018;1;5;9;410;651;22;6;25;31430;1;10;16;569;549;20;7;0;29039;6;1;444;15;8;0;28328;6;1;445;14;9;0;15257;6;1;482;10
21.01.19;16:40:00;1;3319;9869;0;2;10;16412;6;22;404;15;3;1;10881;6;6;524;16;4;0;12397;3;0;227;8;5;88;41013;4;20;16;403;639;22;6;58;31428;4;29;37;519;494;21;7;1;29039;6;4;463;16;8;2;28328;6;9;440;15;9;1;15257;3;2;500;10
21.01.19;16:35:00;1;2888;9608;0;2;22;16411;6;37;403;16;3;2;10881;6;8;538;17;4;2;12397;3;2;200;9;5;117;41006;4;38;34;403;639;23;6;77;31423;4;23;30;519;494;21;7;0;29039;6;5;483;16;8;2;28328;6;4;486;16;9;0;15257;6;4;531;10
21.01.19;16:30:00;1;2618;9384;0;2;71;16409;4;104;372;17;3;6;10880;6;13;544;17;4;18;12397;3;18;198;9;5;169;40996;4;65;47;403;639;23;6;118;31416;4;65;79;519;494;21;7;34;29039;6;71;445;17;8;39;28327;6;62;417;16;9;3;15257;6;8;550;11
21.01.19;16:25:00;1;3289;9159;0;2;233;16404;4;273;391;18;3;80;10880;6;109;478;18;4;86;12396;3;90;199;9;5;219;40981;4;96;81;403;639;23;6;158;31406;4;56;71;519;494;21;7;90;29036;4;136;484;18;8;78;28324;4;113;459;17;9;12;15257;6;18;540;11
21.01.19;16:20:00;1;2725;8886;0;2;311;16385;4;352;384;19;3;155;10874;4;191;437;18;4;118;12389;5;123;221;9;5;307;40963;4;135;124;403;639;23;6;230;31392;4;87;109;519;494;21;7;118;29029;4;170;465;18;8;107;28318;4;143;459;17;9;8;15256;6;13;566;12
21.01.19;16:15:00;1;2710;8659;0;2;677;16359;4;732;395;20;3;351;10861;4;398;445;19;4;247;12379;5;257;203;10;5;712;40937;4;358;298;423;685;24;6;538;31373;4;259;275;602;577;22;7;491;29019;4;535;483;18;8;226;28309;4;267;461;18;9;62;15255;6;86;507;12
21.01.19;16:10:00;1;2817;8434;0;2;903;16304;4;967;396;20;3;480;10833;4;531;451;19;4;294;12359;5;306;199;10;5;982;40875;4;489;411;435;708;24;6;748;31326;4;339;353;612;585;22;7;943;28980;4;1004;490;19;8;372;28291;4;414;448;18;9;89;15250;4;122;534;13
21.01.19;16:05:00;1;2501;8196;0;2;1041;16229;4;1113;401;21;3;558;10793;4;612;450;20;4;338;12334;5;352;199;10;5;1180;40791;4;601;499;438;705;24;6;904;31262;4;465;472;618;588;22;7;1196;28903;4;1278;493;19;8;612;28260;4;655;409;19;9;106;15243;4;139;530;13
21.01.19;16:00:00;1;757;8000;0;2;1163;16143;4;1235;401;22;3;621;10746;4;678;452;20;4;356;12306;5;371;199;10;5;1349;40693;4;697;583;429;713;24;6;1041;31186;4;533;558;609;587;22;7;1187;28804;4;1258;471;20;8;731;28210;4;774;380;19;9;123;15234;4;157;539;14
21.01.19;15:55:00;1;1026;7925;0;2;1292;16046;4;1371;399;22;3;691;10695;4;751;452;20;4;368;12277;5;383;211;11;5;1572;40577;4;797;682;444;707;25;6;1198;31099;4;602;611;613;588;22;7;1320;28704;4;1393;446;20;8;891;28150;4;948;425;20;9;125;15224;4;152;415;14
21.01.19;15:50:00;1;1290;7853;0;2;1450;15939;4;1535;401;23;3;776;10637;4;840;457;21;4;400;12246;5;416;222;11;5;1829;40446;4;929;786;445;715;25;6;1382;30998;4;716;719;620;588;22;7;1374;28595;4;1449;460;21;8;1361;28076;4;1437;442;21;9;170;15213;4;199;356;15
21.01.19;15:45:00;1;768;7747;0;2;1559;15819;4;1647;397;23;3;841;10573;4;904;454;21;4;416;12213;5;433;231;11;5;2010;40293;4;1036;876;436;715;25;6;1535;30881;4;799;797;618;586;22;7;1668;28480;4;1761;497;22;8;1844;27965;4;1939;470;21;9;350;15199;4;385;358;16
21.01.19;15:40:00;1;2215;7661;0;2;1668;15689;4;1761;398;24;3;895;10503;4;962;460;21;4;465;12178;5;484;238;12;5;2226;40123;4;1169;975;445;718;25;6;1689;30752;4;868;857;612;589;23;7;2378;28342;4;2494;491;22;8;2244;27813;4;2357;476;22;9;696;15171;4;742;357;17
21.01.19;15:35:00;1;2124;7479;0;2;1799;15550;4;1899;401;24;3;998;10429;4;1067;444;21;4;502;12140;5;523;248;12;5;2476;39936;4;1311;1074;448;715;26;6;1878;30610;4;959;946;616;588;23;7;2616;28146;4;2741;487;22;8;2514;27626;4;2632;486;22;9;927;15114;4;978;373;18
21.01.19;15:30:00;1;2451;7300;0;2;1899;15400;4;1997;394;25;3;1060;10346;4;1131;444;22;4;537;12098;5;559;244;12;5;2694;39729;4;1422;1171;445;712;26;6;2037;30453;4;1029;1012;618;586;23;7;2791;27928;4;2924;491;23;8;2697;27417;4;2827;484;22;9;1092;15037;4;1157;415;18
21.01.19;15:25:00;1;2185;7097;0;2;1961;15242;4;2064;394;25;3;1091;10257;4;1166;447;22;4;568;12053;5;592;235;12;5;2834;39505;4;1517;1240;442;716;26;6;2158;30282;4;1109;1097;617;590;23;7;2883;27696;4;3027;490;23;8;2825;27194;4;2964;491;23;9;1257;14947;4;1330;459;19
21.01.19;15:20:00;1;2141;6918;0;2;2100;15079;4;2213;408;25;3;1169;10167;4;1243;440;22;4;619;12006;5;644;242;13;5;3070;39268;4;1661;1355;444;709;26;6;2338;30101;4;1208;1195;613;591;23;7;3042;27456;4;3199;491;24;8;2987;26958;4;3128;489;23;9;1159;14842;4;1227;401;16
21.01.19;15:15:00;1;855;6740;0;2;2347;14904;4;2474;418;26;3;1270;10069;4;1352;456;22;4;659;11954;5;687;231;13;5;3366;39009;4;1817;1474;445;721;26;6;2558;29904;4;1310;1284;615;590;23;7;3239;27203;4;3401;491;24;8;3193;26710;4;3346;489;23;9;1639;14722;4;1736;520;21
21.01.19;15:10:00;1;232;6695;0;2;2446;14709;4;2580;420;26;3;1402;9964;4;1491;487;22;4;695;11899;5;724;238;13;5;3581;38728;4;1927;1572;445;717;27;6;2727;29690;4;1393;1378;617;592;23;7;3443;26933;4;3610;498;24;8;3362;26444;4;3521;489;24;9;1794;14585;4;1898;534;21
21.01.19;15:05:00;1;212;6676;0;2;2507;14505;4;2644;420;26;3;1504;9847;4;1604;514;23;4;724;11842;5;754;237;14;5;3747;38429;4;2024;1661;441;708;27;6;2851;29462;4;1464;1441;615;591;23;7;3554;26647;4;3722;491;24;8;3482;26165;4;3647;490;24;9;1877;14436;4;1988;536;22
21.01.19;15:00:00;1;500;6659;0;2;2599;14297;4;2741;419;26;3;1621;9722;4;1725;522;23;4;760;11781;5;791;231;14;5;3954;38115;4;2134;1747;441;703;27;6;3008;29224;4;1570;1538;610;588;24;7;3563;26351;4;3729;493;25;8;3067;25875;4;3224;474;24;9;1680;14281;4;1787;569;22
21.01.19;14:55:00;1;230;6617;0;2;2657;14080;4;2799;416;27;3;1699;9587;4;1805;531;23;4;832;11718;5;867;253;14;5;4132;37785;4;2226;1833;440;704;27;6;3145;28972;4;1601;1572;609;587;24;7;3660;26054;4;3838;485;25;8;3582;25613;4;3753;486;25;9;1979;14145;4;2096;541;22
21.01.19;14:50:00;1;304;6597;0;2;2764;13859;4;2913;416;27;3;1771;9446;4;1879;529;23;4;891;11649;5;929;254;14;5;4345;37440;4;2370;1931;439;706;27;6;3323;28709;4;1729;1686;611;589;24;7;3831;25749;4;4025;494;25;8;3557;25315;4;3723;497;25;9;2005;13980;4;2121;555;23
21.01.19;14:45:00;1;552;6566;0;2;2779;13628;4;2931;413;27;3;1773;9298;4;1887;539;24;4;925;11575;5;963;246;15;5;4486;37075;4;2426;2000;438;703;28;6;3419;28431;4;1756;1719;606;588;24;7;4018;25429;4;4202;490;25;8;3984;25016;4;4171;482;25;9;2035;13812;4;2152;532;23
21.01.19;14:40:00;1;317;6521;0;2;2781;13397;4;2928;409;28;3;1778;9151;4;1889;537;24;4;968;11498;5;1008;247;15;5;4619;36701;4;2519;2046;436;703;28;6;3506;28146;4;1810;1755;605;582;24;7;4016;25094;4;4197;500;26;8;3669;24684;4;3841;472;25;9;2086;13641;4;2203;539;23
21.01.19;14:35:00;1;511;6496;0;2;2897;13166;4;3048;412;28;3;1859;9003;4;1973;526;24;4;975;11417;5;1016;235;15;5;4829;36318;4;2642;2144;433;695;28;6;3672;27856;4;1891;1827;604;584;24;7;3857;24757;4;4047;485;26;8;4022;24369;4;4210;481;26;9;2202;13471;4;2324;546;23
21.01.19;14:30:00;1;272;6450;0;2;2996;12925;4;3152;413;28;3;1924;8848;4;2039;527;24;4;1033;11336;5;1076;236;16;5;5041;35916;4;2760;2231;436;687;28;6;3806;27549;4;1985;1928;605;582;24;7;4225;24449;4;4417;476;26;8;4041;24038;4;4232;480;26;9;2308;13289;4;2437;533;24
21.01.19;14:25:00;1;273;6427;0;2;3067;12675;4;3226;405;29;3;1968;8688;4;2087;527;24;4;1105;11250;5;1151;235;16;5;5284;35493;4;2882;2346;432;703;28;6;4022;27229;4;2092;2036;602;583;24;7;3885;24098;4;4069;482;26;8;4199;23700;4;4400;477;26;9;1945;13098;4;2058;541;24